| time (UTC) | temp F | wind direction | speed knots | gust knots | rain 1hr in | rain 24hr in | rain mn in | humidity % | barometer mb |
| 20260904081111 | 76 | 209 | 0.0 | 0.0 | 0.00 | 0.02 | 0.00 | 90 | 1022.9 |
| 20260904080339 | 76 | 209 | 0.0 | 0.0 | 0.00 | 0.02 | 0.00 | 90 | 1022.8 |
| 20260904075814 | 77 | 209 | 0.0 | 0.0 | 0.00 | 0.02 | 0.00 | 90 | 1022.8 |
| 20260904075245 | 77 | 209 | 0.0 | 0.0 | 0.00 | 0.02 | 0.00 | 90 | 1022.9 |
| 20260904074743 | 77 | 209 | 0.0 | 0.0 | 0.00 | 0.02 | 0.00 | 90 | 1022.9 |
| 20260904074231 | 77 | 209 | 0.0 | 0.0 | 0.00 | 0.02 | 0.00 | 89 | 1022.9 |
| 20260904074226 | 77 | 209 | 0.0 | 0.0 | 0.00 | 0.02 | 0.00 | 90 | 1022.9 |
| 20260904073838 | 77 | 209 | 0.0 | 0.0 | 0.00 | 0.02 | 0.00 | 89 | 1022.9 |
| 20260904072927 | 77 | 209 | 0.0 | 0.0 | 0.00 | 0.02 | 0.00 | 89 | 1022.9 |
| 20260904072153 | 77 | 209 | 0.0 | 0.0 | 0.00 | 0.02 | 0.00 | 89 | 1022.9 |
| 20260904071652 | 77 | 209 | 0.0 | 0.0 | 0.00 | 0.02 | 0.00 | 89 | 1022.9 |
| 20260904071136 | 77 | 209 | 0.0 | 0.0 | 0.00 | 0.02 | 0.00 | 89 | 1022.9 |
| 20260904070638 | 77 | 209 | 0.0 | 0.0 | 0.00 | 0.02 | 0.00 | 89 | 1022.9 |
| 20260904070109 | 77 | 209 | 0.0 | 0.0 | 0.00 | 0.02 | 0.00 | 89 | 1022.9 |
| 20260904065607 | 77 | 209 | 0.0 | 0.0 | 0.00 | 0.02 | 0.00 | 89 | 1022.9 |
| 20260904065039 | 77 | 209 | 0.0 | 0.0 | 0.00 | 0.02 | 0.00 | 89 | 1022.9 |
| 20260904064538 | 77 | 188 | 0.0 | 0.0 | 0.00 | 0.02 | 0.00 | 89 | 1022.9 |
| 20260904064248 | 77 | 185 | 0.0 | 0.0 | 0.00 | 0.02 | 0.00 | 89 | 1022.9 |
| 20260904063519 | 77 | 196 | 0.0 | 0.0 | 0.00 | 0.02 | 0.00 | 88 | 1022.9 |
| 20260904062959 | 77 | 191 | 0.0 | 0.0 | 0.00 | 0.02 | 0.00 | 88 | 1022.9 |
| 20260904062421 | 78 | 191 | 0.0 | 0.0 | 0.00 | 0.02 | 0.00 | 88 | 1022.9 |
| 20260904061919 | 78 | 194 | 0.0 | 0.0 | 0.00 | 0.02 | 0.00 | 88 | 1023.0 |
| 20260904061351 | 78 | 194 | 0.0 | 0.0 | 0.00 | 0.02 | 0.00 | 88 | 1023.0 |
| 20260904060847 | 78 | 194 | 0.0 | 0.0 | 0.00 | 0.02 | 0.00 | 88 | 1023.0 |
| 20260904060338 | 78 | 197 | 0.0 | 0.0 | 0.00 | 0.02 | 0.00 | 88 | 1022.9 |
| 20260904060104 | 78 | 191 | 0.0 | 0.0 | 0.00 | 0.02 | 0.00 | 87 | 1023.0 |
| 20260904055327 | 78 | 191 | 0.0 | 0.0 | 0.00 | 0.02 | 0.00 | 87 | 1023.0 |
| 20260904054824 | 78 | 191 | 0.0 | 0.0 | 0.00 | 0.02 | 0.00 | 87 | 1023.1 |
| 20260904054817 | 78 | 191 | 0.0 | 0.0 | 0.00 | 0.02 | 0.00 | 87 | 1023.0 |
| 20260904053814 | 78 | 191 | 0.0 | 0.0 | 0.00 | 0.02 | 0.00 | 87 | 1022.9 |
| 20260904053549 | 78 | 183 | 0.0 | 0.0 | 0.00 | 0.02 | 0.00 | 87 | 1022.9 |
| 20260904052751 | 78 | 184 | 0.0 | 0.0 | 0.00 | 0.02 | 0.00 | 86 | 1022.9 |
| 20260904052456 | 78 | 184 | 0.0 | 0.0 | 0.00 | 0.02 | 0.00 | 86 | 1022.9 |
| 20260904051708 | 78 | 187 | 0.0 | 4.3 | 0.00 | 0.02 | 0.00 | 86 | 1022.8 |
| 20260904051209 | 78 | 187 | 0.0 | 4.3 | 0.00 | 0.02 | 0.00 | 86 | 1022.9 |
| 20260904050707 | 78 | 189 | 0.0 | 0.9 | 0.00 | 0.02 | 0.00 | 86 | 1022.8 |
| 20260904050207 | 78 | 192 | 0.0 | 0.9 | 0.00 | 0.02 | 0.00 | 86 | 1022.8 |
| 20260904045910 | 79 | 182 | 0.0 | 0.0 | 0.00 | 0.02 | 0.02 | 85 | 1022.9 |
| 20260904045114 | 79 | 181 | 0.0 | 2.6 | 0.00 | 0.02 | 0.02 | 85 | 1022.8 |
| 20260904044545 | 79 | 196 | 0.0 | 2.6 | 0.00 | 0.02 | 0.02 | 85 | 1022.8 |
| 20260904044043 | 79 | 192 | 0.0 | 0.9 | 0.00 | 0.02 | 0.02 | 85 | 1022.8 |
| 20260904043515 | 79 | 188 | 0.0 | 0.0 | 0.00 | 0.02 | 0.02 | 85 | 1022.8 |
| 20260904043005 | 79 | 184 | 0.0 | 0.0 | 0.00 | 0.02 | 0.02 | 84 | 1022.8 |
| 20260904042503 | 79 | 192 | 0.0 | 3.5 | 0.00 | 0.02 | 0.02 | 84 | 1022.8 |
| 20260904041937 | 79 | 182 | 0.0 | 3.5 | 0.00 | 0.02 | 0.02 | 84 | 1022.7 |
| 20260904041409 | 79 | 191 | 0.0 | 2.6 | 0.00 | 0.02 | 0.02 | 84 | 1022.7 |
| 20260904040908 | 79 | 178 | 0.0 | 2.6 | 0.00 | 0.02 | 0.02 | 84 | 1022.8 |
| 20260904040341 | 79 | 188 | 0.0 | 2.6 | 0.00 | 0.02 | 0.02 | 83 | 1022.8 |
| 20260904035833 | 79 | 194 | 0.0 | 0.0 | 0.00 | 0.02 | 0.02 | 83 | 1022.8 |
| 20260904035332 | 79 | 190 | 0.0 | 0.9 | 0.00 | 0.02 | 0.02 | 83 | 1022.8 |
| 20260904034803 | 79 | 182 | 0.0 | 6.1 | 0.00 | 0.02 | 0.02 | 83 | 1022.8 |
| 20260904034301 | 80 | 190 | 0.0 | 1.7 | 0.00 | 0.02 | 0.02 | 82 | 1022.8 |
| 20260904033729 | 80 | 178 | 0.0 | 1.7 | 0.00 | 0.02 | 0.02 | 82 | 1022.8 |
| 20260904033231 | 80 | 184 | 0.0 | 1.7 | 0.00 | 0.02 | 0.02 | 82 | 1022.7 |
| 20260904032733 | 80 | 188 | 0.0 | 1.7 | 0.00 | 0.02 | 0.02 | 81 | 1022.8 |
| 20260904032225 | 80 | 196 | 0.0 | 2.6 | 0.00 | 0.02 | 0.02 | 81 | 1022.8 |
| 20260904031724 | 80 | 202 | 0.0 | 7.0 | 0.00 | 0.02 | 0.02 | 81 | 1022.9 |
| 20260904031155 | 80 | 190 | 0.0 | 7.0 | 0.00 | 0.02 | 0.02 | 81 | 1022.9 |
| 20260904030653 | 80 | 188 | 0.0 | 6.1 | 0.00 | 0.02 | 0.02 | 81 | 1022.9 |
| 20260904030125 | 80 | 182 | 0.0 | 6.1 | 0.00 | 0.02 | 0.02 | 81 | 1022.8 |
| 20260904025614 | 80 | 177 | 0.0 | 3.5 | 0.00 | 0.02 | 0.02 | 81 | 1022.9 |
| 20260904025048 | 80 | 180 | 0.0 | 0.0 | 0.00 | 0.02 | 0.02 | 81 | 1022.8 |
| 20260904024535 | 80 | 180 | 0.0 | 0.0 | 0.00 | 0.02 | 0.02 | 80 | 1022.8 |
| 20260904024034 | 80 | 190 | 0.0 | 0.0 | 0.00 | 0.02 | 0.02 | 80 | 1022.8 |
| 20260904023505 | 80 | 190 | 0.0 | 0.0 | 0.00 | 0.02 | 0.02 | 80 | 1022.8 |
| 20260904023004 | 80 | 187 | 0.0 | 0.0 | 0.00 | 0.02 | 0.02 | 80 | 1022.7 |
| 20260904022656 | 80 | 186 | 0.0 | 0.0 | 0.00 | 0.02 | 0.02 | 79 | 1022.7 |
| 20260904022532 | 80 | 186 | 0.0 | 0.0 | 0.00 | 0.02 | 0.02 | 79 | 1022.8 |
| 20260904021418 | 80 | 186 | 0.0 | 0.0 | 0.00 | 0.02 | 0.02 | 79 | 1022.6 |
| 20260904020855 | 81 | 186 | 0.0 | 0.0 | 0.00 | 0.02 | 0.02 | 78 | 1022.6 |
| 20260904020608 | 81 | 186 | 0.0 | 0.0 | 0.00 | 0.02 | 0.02 | 78 | 1022.6 |
| 20260904015836 | 81 | 186 | 0.0 | 0.0 | 0.00 | 0.02 | 0.02 | 78 | 1022.5 |
| 20260904015335 | 81 | 186 | 0.0 | 0.0 | 0.00 | 0.02 | 0.02 | 77 | 1022.5 |
| 20260904014833 | 81 | 186 | 0.0 | 0.0 | 0.00 | 0.02 | 0.02 | 77 | 1022.5 |
| 20260904014305 | 82 | 186 | 0.0 | 0.0 | 0.00 | 0.02 | 0.02 | 77 | 1022.5 |
| 20260904013804 | 82 | 186 | 0.0 | 0.0 | 0.00 | 0.02 | 0.02 | 76 | 1022.5 |
| 20260904013243 | 82 | 186 | 0.0 | 0.0 | 0.00 | 0.02 | 0.02 | 76 | 1022.5 |
| 20260904012742 | 82 | 186 | 0.0 | 0.0 | 0.00 | 0.02 | 0.02 | 75 | 1022.5 |
| 20260904012244 | 82 | 186 | 0.0 | 0.0 | 0.00 | 0.02 | 0.02 | 75 | 1022.4 |
| 20260904011719 | 82 | 186 | 0.0 | 0.0 | 0.00 | 0.02 | 0.02 | 74 | 1022.2 |
| 20260904011151 | 83 | 186 | 0.0 | 0.9 | 0.00 | 0.02 | 0.02 | 74 | 1022.1 |
| 20260904010650 | 83 | 186 | 0.0 | 0.9 | 0.00 | 0.02 | 0.02 | 73 | 1022.1 |
| 20260904010122 | 83 | 187 | 0.0 | 0.9 | 0.00 | 0.02 | 0.02 | 73 | 1022.1 |
| 20260904005547 | 83 | 205 | 0.0 | 0.9 | 0.00 | 0.02 | 0.02 | 72 | 1022.1 |
| 20260904005029 | 83 | 200 | 0.0 | 0.0 | 0.00 | 0.02 | 0.02 | 72 | 1022.0 |
| 20260904004528 | 84 | 200 | 0.0 | 2.6 | 0.00 | 0.02 | 0.02 | 71 | 1022.0 |
| 20260904004023 | 84 | 200 | 0.0 | 2.6 | 0.00 | 0.02 | 0.02 | 71 | 1022.0 |
| 20260904003521 | 84 | 194 | 0.0 | 0.0 | 0.00 | 0.02 | 0.02 | 70 | 1022.0 |
| 20260904003225 | 84 | 202 | 0.0 | 0.0 | 0.00 | 0.02 | 0.02 | 70 | 1022.0 |
| 20260904002452 | 84 | 205 | 0.0 | 0.0 | 0.00 | 0.02 | 0.02 | 69 | 1022.0 |
| 20260904001950 | 85 | 193 | 0.0 | 0.0 | 0.00 | 0.02 | 0.02 | 69 | 1022.0 |
| 20260904001453 | 85 | 193 | 0.0 | 0.0 | 0.00 | 0.02 | 0.02 | 68 | 1022.1 |
| 20260904000928 | 85 | 193 | 0.0 | 0.0 | 0.00 | 0.02 | 0.02 | 68 | 1022.0 |
| 20260904000359 | 85 | 188 | 0.0 | 0.0 | 0.00 | 0.02 | 0.02 | 67 | 1022.0 |
| 20260903235858 | 85 | 188 | 0.0 | 2.6 | 0.00 | 0.02 | 0.02 | 67 | 1022.0 |
| 20260903235401 | 85 | 169 | 0.0 | 4.3 | 0.00 | 0.02 | 0.02 | 67 | 1022.1 |
| 20260903235126 | 85 | 180 | 0.0 | 4.3 | 0.00 | 0.02 | 0.02 | 66 | 1022.1 |
| 20260903234400 | 85 | 192 | 0.0 | 3.5 | 0.00 | 0.02 | 0.02 | 66 | 1022.1 |
| 20260903233842 | 86 | 180 | 0.0 | 8.7 | 0.00 | 0.02 | 0.02 | 65 | 1022.1 |
| 20260903233346 | 86 | 182 | 0.9 | 8.7 | 0.00 | 0.02 | 0.02 | 65 | 1022.2 |
| 20260903232824 | 86 | 120 | 0.9 | 7.8 | 0.00 | 0.02 | 0.02 | 64 | 1022.2 |
| 20260903232325 | 86 | 235 | 0.9 | 9.6 | 0.00 | 0.02 | 0.02 | 64 | 1022.1 |
| 20260903231823 | 87 | 188 | 0.9 | 9.6 | 0.00 | 0.02 | 0.02 | 63 | 1022.0 |
| 20260903231322 | 87 | 168 | 1.7 | 12.2 | 0.00 | 0.02 | 0.02 | 63 | 1021.8 |
| 20260903230753 | 87 | 225 | 1.7 | 8.7 | 0.00 | 0.02 | 0.02 | 62 | 1021.7 |
| 20260903230520 | 87 | 112 | 0.9 | 13.9 | 0.00 | 0.02 | 0.02 | 61 | 1021.5 |
| 20260903225743 | 88 | 183 | 0.0 | 5.2 | 0.00 | 0.02 | 0.02 | 60 | 1021.5 |
| 20260903225242 | 88 | 349 | 0.0 | 1.7 | 0.00 | 0.02 | 0.02 | 60 | 1021.3 |
| 20260903224947 | 89 | 165 | 0.0 | 7.8 | 0.00 | 0.02 | 0.02 | 59 | 1021.5 |
| 20260903224214 | 89 | 178 | 0.0 | 7.8 | 0.00 | 0.02 | 0.02 | 59 | 1021.4 |
| 20260903223714 | 88 | 198 | 0.9 | 11.3 | 0.00 | 0.02 | 0.02 | 60 | 1021.3 |
| 20260903223159 | 88 | 169 | 1.7 | 11.3 | 0.00 | 0.02 | 0.02 | 59 | 1021.4 |
| 20260903222704 | 88 | 163 | 2.6 | 14.8 | 0.00 | 0.02 | 0.02 | 59 | 1021.5 |
| 20260903222143 | 88 | 182 | 2.6 | 14.8 | 0.00 | 0.02 | 0.02 | 58 | 1021.5 |
| 20260903221641 | 88 | 243 | 1.7 | 12.2 | 0.00 | 0.02 | 0.02 | 59 | 1021.5 |
| 20260903221138 | 88 | 164 | 1.7 | 12.2 | 0.00 | 0.02 | 0.02 | 57 | 1021.6 |
| 20260903220909 | 89 | 224 | 0.9 | 10.4 | 0.00 | 0.02 | 0.02 | 57 | 1021.7 |
| 20260903220135 | 89 | 194 | 2.6 | 12.2 | 0.00 | 0.02 | 0.02 | 57 | 1021.6 |
| 20260903215609 | 88 | 128 | 2.6 | 14.8 | 0.00 | 0.02 | 0.02 | 58 | 1021.5 |
| 20260903215044 | 89 | 183 | 0.9 | 13.0 | 0.00 | 0.02 | 0.02 | 56 | 1021.7 |
| 20260903214547 | 89 | 123 | 0.9 | 10.4 | 0.00 | 0.02 | 0.02 | 57 | 1021.8 |
| 20260903214029 | 89 | 207 | 0.9 | 7.0 | 0.00 | 0.02 | 0.02 | 56 | 1021.7 |
| 20260903213531 | 90 | 189 | 0.0 | 7.0 | 0.00 | 0.02 | 0.02 | 56 | 1021.7 |
| 20260903213009 | 90 | 118 | 0.9 | 5.2 | 0.00 | 0.02 | 0.02 | 57 | 1021.9 |
| 20260903212514 | 89 | 127 | 1.7 | 8.7 | 0.00 | 0.02 | 0.02 | 57 | 1021.9 |
| 20260903212221 | 89 | 144 | 1.7 | 10.4 | 0.00 | 0.02 | 0.02 | 58 | 1022.0 |
| 20260903211440 | 89 | 182 | 1.7 | 10.4 | 0.00 | 0.02 | 0.02 | 57 | 1022.0 |
| 20260903210850 | 89 | 136 | 1.7 | 13.0 | 0.00 | 0.02 | 0.02 | 57 | 1022.0 |
| 20260903210601 | 89 | 209 | 1.7 | 13.0 | 0.00 | 0.02 | 0.02 | 57 | 1022.0 |
| 20260903205805 | 89 | 128 | 0.0 | 4.3 | 0.00 | 0.02 | 0.02 | 58 | 1021.9 |
| 20260903205243 | 88 | 131 | 0.0 | 6.1 | 0.00 | 0.02 | 0.02 | 60 | 1022.0 |
| 20260903204744 | 88 | 81 | 0.0 | 6.1 | 0.00 | 0.02 | 0.02 | 60 | 1022.1 |
| 20260903204243 | 88 | 168 | 0.0 | 1.7 | 0.00 | 0.02 | 0.02 | 59 | 1022.5 |
| 20260903203732 | 87 | 185 | 0.0 | 1.7 | 0.00 | 0.02 | 0.02 | 59 | 1022.5 |
| 20260903203228 | 87 | 185 | 0.0 | 7.8 | 0.00 | 0.02 | 0.02 | 59 | 1022.6 |
| 20260903202728 | 87 | 230 | 0.0 | 7.8 | 0.00 | 0.02 | 0.02 | 59 | 1022.4 |
| 20260903202429 | 87 | 98 | 0.9 | 7.8 | 0.00 | 0.02 | 0.02 | 59 | 1022.6 |
| 20260903201636 | 88 | 175 | 0.9 | 9.6 | 0.00 | 0.02 | 0.02 | 59 | 1022.6 |
| 20260903201107 | 88 | 143 | 0.9 | 9.6 | 0.00 | 0.02 | 0.02 | 58 | 1022.5 |
| 20260903200818 | 89 | 196 | 1.7 | 10.4 | 0.00 | 0.02 | 0.02 | 58 | 1022.6 |
| 20260903200048 | 89 | 159 | 1.7 | 13.0 | 0.00 | 0.02 | 0.02 | 57 | 1022.6 |
| 20260903195524 | 90 | 126 | 0.9 | 13.0 | 0.00 | 0.02 | 0.02 | 55 | 1022.8 |
| 20260903195023 | 90 | 212 | 1.7 | 11.3 | 0.00 | 0.02 | 0.02 | 56 | 1022.6 |
| 20260903194458 | 89 | 131 | 3.5 | 16.5 | 0.00 | 0.02 | 0.02 | 58 | 1022.6 |
| 20260903194223 | 88 | 190 | 4.3 | 16.5 | 0.00 | 0.02 | 0.02 | 57 | 1022.9 |
| 20260903193452 | 89 | 236 | 5.2 | 15.6 | 0.00 | 0.02 | 0.02 | 57 | 1023.1 |
| 20260903192951 | 89 | 184 | 2.6 | 13.0 | 0.00 | 0.02 | 0.02 | 55 | 1023.1 |
| 20260903192451 | 90 | 153 | 0.9 | 10.4 | 0.00 | 0.02 | 0.02 | 56 | 1022.8 |
| 20260903191949 | 89 | 189 | 0.9 | 10.4 | 0.00 | 0.02 | 0.02 | 57 | 1022.8 |
| 20260903191451 | 89 | 184 | 0.9 | 11.3 | 0.00 | 0.02 | 0.02 | 57 | 1022.8 |
| 20260903190934 | 89 | 196 | 0.9 | 11.3 | 0.00 | 0.02 | 0.02 | 56 | 1022.9 |
| 20260903190439 | 89 | 185 | 0.0 | 1.7 | 0.00 | 0.02 | 0.02 | 59 | 1022.9 |
| 20260903185913 | 88 | 209 | 0.9 | 9.6 | 0.00 | 0.02 | 0.02 | 61 | 1022.9 |
| 20260903185416 | 87 | 202 | 0.9 | 9.6 | 0.00 | 0.02 | 0.02 | 60 | 1022.9 |
| 20260903184914 | 87 | 186 | 0.9 | 7.8 | 0.00 | 0.02 | 0.02 | 62 | 1023.0 |
| 20260903184412 | 86 | 271 | 0.9 | 10.4 | 0.01 | 0.02 | 0.02 | 63 | 1023.1 |
| 20260903183856 | 85 | 117 | 0.9 | 10.4 | 0.02 | 0.02 | 0.02 | 66 | 1023.0 |
| 20260903183401 | 85 | 215 | 0.0 | 3.5 | 0.02 | 0.02 | 0.02 | 69 | 1023.2 |
| 20260903182834 | 84 | 196 | 0.0 | 0.0 | 0.02 | 0.02 | 0.02 | 76 | 1023.2 |
| 20260903182312 | 82 | 180 | 0.0 | 2.6 | 0.02 | 0.02 | 0.02 | 79 | 1023.2 |
| 20260903181747 | 81 | 182 | 0.0 | 0.9 | 0.02 | 0.02 | 0.02 | 80 | 1023.2 |
| 20260903181244 | 80 | 225 | 0.0 | 7.8 | 0.02 | 0.02 | 0.02 | 84 | 1023.2 |
| 20260903180718 | 79 | 186 | 0.0 | 0.9 | 0.02 | 0.02 | 0.02 | 85 | 1023.2 |
| 20260903180211 | 78 | 152 | 0.0 | 0.9 | 0.02 | 0.02 | 0.02 | 86 | 1023.3 |
| 20260903175644 | 78 | 123 | 0.0 | 0.0 | 0.02 | 0.02 | 0.02 | 85 | 1023.4 |
| 20260903175116 | 78 | 123 | 0.0 | 0.0 | 0.02 | 0.02 | 0.02 | 84 | 1023.6 |
| 20260903174615 | 78 | 123 | 0.0 | 0.0 | 0.01 | 0.01 | 0.01 | 84 | 1023.5 |
| 20260903174049 | 78 | 123 | 0.0 | 0.0 | 0.00 | 0.00 | 0.00 | 84 | 1023.3 |
| 20260903173530 | 78 | 123 | 0.0 | 0.0 | 0.00 | 0.00 | 0.00 | 82 | 1023.0 |
| 20260903173007 | 79 | 107 | 0.0 | 0.0 | 0.00 | 0.00 | 0.00 | 82 | 1023.3 |
| 20260903172710 | 79 | 105 | 0.0 | 0.0 | 0.00 | 0.00 | 0.00 | 83 | 1023.4 |
| 20260903171937 | 79 | 108 | 0.0 | 0.0 | 0.00 | 0.00 | 0.00 | 83 | 1023.5 |
| 20260903171704 | 78 | 144 | 0.0 | 0.0 | 0.00 | 0.00 | 0.00 | 85 | 1023.5 |
| 20260903170930 | 78 | 163 | 0.0 | 0.9 | 0.00 | 0.00 | 0.00 | 85 | 1023.7 |
| 20260903170410 | 77 | 227 | 0.0 | 0.0 | 0.00 | 0.00 | 0.00 | 83 | 1023.9 |
| 20260903165831 | 77 | 107 | 0.0 | 0.0 | 0.00 | 0.00 | 0.00 | 82 | 1024.0 |
| 20260903165313 | 78 | 113 | 0.0 | 0.0 | 0.00 | 0.00 | 0.00 | 80 | 1024.1 |
| 20260903164817 | 78 | 127 | 0.0 | 0.0 | 0.00 | 0.00 | 0.00 | 80 | 1024.2 |
| 20260903164310 | 79 | 128 | 0.0 | 0.0 | 0.00 | 0.00 | 0.00 | 79 | 1024.1 |
| 20260903163815 | 79 | 128 | 0.0 | 0.0 | 0.00 | 0.00 | 0.00 | 77 | 1023.9 |
| 20260903163301 | 79 | 202 | 0.0 | 0.0 | 0.00 | 0.00 | 0.00 | 76 | 1024.1 |
| 20260903162759 | 79 | 202 | 0.0 | 0.0 | 0.00 | 0.00 | 0.00 | 76 | 1024.1 |
| 20260903162253 | 79 | 159 | 0.0 | 0.0 | 0.00 | 0.00 | 0.00 | 75 | 1024.0 |
| 20260903162000 | 79 | 159 | 0.0 | 0.0 | 0.00 | 0.00 | 0.00 | 75 | 1023.9 |
| 20260903161222 | 79 | 175 | 0.0 | 3.5 | 0.00 | 0.00 | 0.00 | 74 | 1023.9 |
| 20260903160718 | 79 | 194 | 0.0 | 0.9 | 0.00 | 0.00 | 0.00 | 74 | 1024.1 |
| 20260903160152 | 78 | 172 | 0.0 | 6.1 | 0.00 | 0.00 | 0.00 | 76 | 1024.1 |
| 20260903155911 | 78 | 195 | 0.0 | 1.7 | 0.00 | 0.00 | 0.00 | 78 | 1024.0 |
| 20260903155115 | 78 | 198 | 0.0 | 1.7 | 0.00 | 0.00 | 0.00 | 79 | 1024.1 |
| 20260903155047 | 77 | 88 | 0.0 | 0.0 | 0.00 | 0.00 | 0.00 | 81 | 1024.0 |
| 20260903154043 | 77 | 88 | 0.0 | 0.0 | 0.00 | 0.00 | 0.00 | 82 | 1023.9 |
| 20260903153541 | 76 | 84 | 0.0 | 0.0 | 0.00 | 0.00 | 0.00 | 83 | 1024.0 |
| 20260903153036 | 76 | 101 | 0.0 | 0.0 | 0.00 | 0.00 | 0.00 | 82 | 1023.9 |
| 20260903152518 | 76 | 101 | 0.0 | 0.0 | 0.00 | 0.00 | 0.00 | 82 | 1023.8 |
| 20260903152248 | 76 | 111 | 0.0 | 0.0 | 0.00 | 0.00 | 0.00 | 81 | 1024.0 |
| 20260903151448 | 76 | 98 | 0.0 | 0.0 | 0.00 | 0.00 | 0.00 | 79 | 1024.1 |
| 20260903150944 | 77 | 140 | 0.0 | 0.0 | 0.00 | 0.00 | 0.00 | 78 | 1024.1 |
| 20260903150425 | 77 | 128 | 0.0 | 0.9 | 0.00 | 0.00 | 0.00 | 78 | 1024.1 |
| 20260903145859 | 77 | 128 | 0.0 | 0.9 | 0.00 | 0.00 | 0.00 | 76 | 1023.9 |
| 20260903145321 | 77 | 227 | 0.0 | 0.0 | 0.00 | 0.00 | 0.00 | 75 | 1023.9 |
| 20260903144752 | 78 | 115 | 0.0 | 0.0 | 0.00 | 0.00 | 0.00 | 75 | 1023.8 |
| 20260903144251 | 78 | 155 | 0.0 | 0.0 | 0.00 | 0.00 | 0.00 | 74 | 1023.9 |
| 20260903144001 | 77 | 119 | 0.0 | 0.0 | 0.00 | 0.00 | 0.00 | 76 | 1023.8 |
| 20260903143725 | 78 | 119 | 0.0 | 0.0 | 0.00 | 0.00 | 0.00 | 76 | 1023.8 |
| 20260903142722 | 77 | 355 | 0.0 | 0.9 | 0.00 | 0.00 | 0.00 | 77 | 1023.7 |
| 20260903142136 | 76 | 112 | 0.0 | 0.9 | 0.00 | 0.00 | 0.00 | 78 | 1023.8 |
| 20260903141636 | 76 | 113 | 0.0 | 0.9 | 0.00 | 0.00 | 0.00 | 79 | 1023.8 |
| 20260903141609 | 76 | 165 | 0.0 | 0.0 | 0.00 | 0.00 | 0.00 | 78 | 1023.9 |
| 20260903140603 | 76 | 165 | 0.0 | 0.9 | 0.00 | 0.00 | 0.00 | 78 | 1024.0 |
| 20260903140039 | 76 | 165 | 0.0 | 0.9 | 0.00 | 0.00 | 0.00 | 79 | 1024.0 |
| 20260903135542 | 75 | 88 | 0.0 | 0.9 | 0.00 | 0.00 | 0.00 | 79 | 1024.0 |
| 20260903135000 | 75 | 151 | 0.0 | 1.7 | 0.00 | 0.00 | 0.00 | 80 | 1023.9 |
| 20260903134459 | 75 | 119 | 0.0 | 1.7 | 0.00 | 0.00 | 0.00 | 81 | 1024.0 |
| 20260903133954 | 74 | 113 | 0.0 | 0.0 | 0.00 | 0.00 | 0.00 | 81 | 1024.0 |
| 20260903133722 | 74 | 156 | 0.0 | 0.0 | 0.00 | 0.00 | 0.00 | 81 | 1024.0 |
| 20260903132927 | 74 | 159 | 0.0 | 0.9 | 0.00 | 0.00 | 0.00 | 82 | 1024.0 |
| 20260903132406 | 74 | 169 | 0.0 | 0.9 | 0.00 | 0.00 | 0.00 | 81 | 1023.9 |
| 20260903131825 | 74 | 189 | 0.0 | 0.9 | 0.00 | 0.00 | 0.00 | 82 | 1023.9 |
| 20260903131321 | 74 | 196 | 0.0 | 0.0 | 0.00 | 0.00 | 0.00 | 82 | 1024.0 |
| 20260903130821 | 74 | 242 | 0.0 | 0.9 | 0.00 | 0.00 | 0.00 | 82 | 1023.9 |
| 20260903130255 | 74 | 184 | 0.0 | 0.9 | 0.00 | 0.00 | 0.00 | 82 | 1023.9 |
| 20260903125728 | 74 | 182 | 0.0 | 2.6 | 0.00 | 0.00 | 0.00 | 82 | 1023.8 |
| 20260903125232 | 74 | 211 | 0.0 | 2.6 | 0.00 | 0.00 | 0.00 | 82 | 1023.7 |
| 20260903124641 | 74 | 172 | 0.0 | 3.5 | 0.00 | 0.00 | 0.00 | 82 | 1023.7 |
| 20260903124112 | 74 | 190 | 0.0 | 3.5 | 0.00 | 0.00 | 0.00 | 82 | 1023.7 |
| 20260903123611 | 74 | 177 | 0.0 | 1.7 | 0.00 | 0.00 | 0.00 | 82 | 1023.7 |
| 20260903123042 | 74 | 179 | 0.0 | 0.9 | 0.00 | 0.00 | 0.00 | 83 | 1023.6 |
| 20260903122541 | 74 | 187 | 0.0 | 0.0 | 0.00 | 0.00 | 0.00 | 83 | 1023.1 |
| 20260903122021 | 74 | 187 | 0.0 | 0.0 | 0.00 | 0.00 | 0.00 | 83 | 1023.0 |
| 20260903121518 | 74 | 188 | 0.0 | 6.1 | 0.00 | 0.00 | 0.00 | 83 | 1023.0 |
| 20260903121014 | 74 | 185 | 0.0 | 6.1 | 0.00 | 0.00 | 0.00 | 83 | 1023.2 |
| 20260903120743 | 75 | 203 | 0.9 | 11.3 | 0.00 | 0.00 | 0.00 | 83 | 1023.1 |
| 20260903120446 | 75 | 178 | 0.9 | 11.3 | 0.00 | 0.00 | 0.00 | 83 | 1023.3 |
| 20260903115442 | 75 | 226 | 0.0 | 6.1 | 0.00 | 0.00 | 0.00 | 83 | 1023.4 |
| 20260903114918 | 75 | 209 | 0.0 | 5.2 | 0.00 | 0.00 | 0.00 | 84 | 1023.4 |
| 20260903114417 | 74 | 235 | 0.9 | 9.6 | 0.00 | 0.00 | 0.00 | 85 | 1023.7 |
| 20260903113851 | 74 | 200 | 0.9 | 9.6 | 0.00 | 0.00 | 0.00 | 85 | 1023.7 |
| 20260903113327 | 75 | 213 | 1.7 | 12.2 | 0.00 | 0.00 | 0.00 | 85 | 1024.1 |
| 20260903112759 | 75 | 236 | 0.9 | 12.2 | 0.00 | 0.00 | 0.00 | 85 | 1024.4 |
| 20260903112246 | 75 | 219 | 0.0 | 6.1 | 0.00 | 0.00 | 0.00 | 87 | 1024.3 |
| 20260903111749 | 74 | 189 | 0.0 | 6.1 | 0.00 | 0.00 | 0.00 | 88 | 1024.3 |
| 20260903111222 | 74 | 199 | 0.0 | 0.9 | 0.00 | 0.00 | 0.00 | 89 | 1024.2 |
| 20260903110951 | 74 | 209 | 0.0 | 0.0 | 0.00 | 0.00 | 0.00 | 89 | 1024.1 |
| 20260903110156 | 74 | 228 | 0.0 | 0.0 | 0.00 | 0.00 | 0.00 | 89 | 1024.0 |
| 20260903105652 | 74 | 234 | 0.0 | 0.9 | 0.00 | 0.00 | 0.00 | 89 | 1023.9 |
| 20260903105402 | 74 | 186 | 0.0 | 0.9 | 0.00 | 0.00 | 0.00 | 89 | 1023.9 |
| 20260903104614 | 74 | 189 | 0.0 | 2.6 | 0.00 | 0.00 | 0.00 | 89 | 1024.0 |
| 20260903104341 | 74 | 180 | 0.0 | 2.6 | 0.00 | 0.00 | 0.00 | 89 | 1024.1 |
| 20260903103612 | 74 | 193 | 0.0 | 5.2 | 0.00 | 0.00 | 0.00 | 89 | 1024.1 |
| 20260903103109 | 74 | 201 | 0.0 | 5.2 | 0.00 | 0.00 | 0.00 | 89 | 1024.1 |
| 20260903102609 | 74 | 224 | 0.0 | 7.0 | 0.00 | 0.00 | 0.00 | 90 | 1024.3 |
| 20260903102056 | 74 | 148 | 0.0 | 7.0 | 0.00 | 0.00 | 0.00 | 90 | 1024.3 |
| 20260903101553 | 73 | 195 | 0.0 | 0.9 | 0.00 | 0.00 | 0.00 | 90 | 1024.0 |
| 20260903101056 | 73 | 197 | 0.0 | 0.9 | 0.00 | 0.00 | 0.00 | 90 | 1023.8 |
| 20260903100554 | 73 | 207 | 0.0 | 0.0 | 0.00 | 0.00 | 0.00 | 90 | 1023.7 |
| 20260903100054 | 73 | 237 | 0.0 | 0.0 | 0.00 | 0.00 | 0.00 | 90 | 1023.7 |
| 20260903095544 | 73 | 211 | 0.0 | 0.0 | 0.00 | 0.00 | 0.00 | 90 | 1023.8 |
| 20260903095045 | 73 | 192 | 0.0 | 0.9 | 0.00 | 0.00 | 0.00 | 90 | 1023.9 |
| 20260903094534 | 73 | 184 | 0.0 | 0.9 | 0.00 | 0.00 | 0.00 | 91 | 1024.2 |
| 20260903093955 | 73 | 175 | 0.0 | 0.9 | 0.00 | 0.00 | 0.00 | 91 | 1024.2 |
| 20260903093442 | 73 | 193 | 0.0 | 0.0 | 0.00 | 0.00 | 0.00 | 91 | 1024.1 |
| 20260903092942 | 73 | 187 | 0.0 | 0.0 | 0.00 | 0.00 | 0.00 | 91 | 1024.0 |
| 20260903092440 | 73 | 109 | 0.0 | 0.0 | 0.00 | 0.00 | 0.00 | 91 | 1023.9 |
| 20260903091925 | 73 | 65 | 0.0 | 0.0 | 0.00 | 0.00 | 0.00 | 91 | 1023.9 |
| 20260903091409 | 73 | 65 | 0.0 | 0.0 | 0.00 | 0.00 | 0.00 | 91 | 1023.9 |
| 20260903090858 | 73 | 65 | 0.0 | 0.0 | 0.00 | 0.00 | 0.00 | 91 | 1023.8 |
| 20260903090632 | 73 | 65 | 0.0 | 0.0 | 0.00 | 0.00 | 0.00 | 90 | 1023.7 |
| 20260903085833 | 73 | 65 | 0.0 | 0.0 | 0.00 | 0.00 | 0.00 | 90 | 1023.7 |
| 20260903085318 | 73 | 65 | 0.0 | 0.0 | 0.00 | 0.00 | 0.00 | 90 | 1023.7 |
| 20260903084758 | 73 | 65 | 0.0 | 0.0 | 0.00 | 0.00 | 0.00 | 90 | 1023.6 |
| 20260903084244 | 73 | 63 | 0.0 | 0.0 | 0.00 | 0.00 | 0.00 | 90 | 1023.8 |
| 20260903084239 | 73 | 63 | 0.0 | 0.0 | 0.00 | 0.00 | 0.00 | 90 | 1023.7 |
| 20260903083218 | 73 | 63 | 0.0 | 0.0 | 0.00 | 0.00 | 0.00 | 90 | 1023.8 |
| 20260903082658 | 73 | 59 | 0.0 | 0.0 | 0.00 | 0.00 | 0.00 | 90 | 1023.7 |
| 20260903082143 | 73 | 96 | 0.0 | 0.0 | 0.00 | 0.00 | 0.00 | 90 | 1023.9 |
| 20260903081639 | 73 | 96 | 0.0 | 0.0 | 0.00 | 0.00 | 0.00 | 90 | 1023.9 |